Location: Unspecified
(22.6800°N, 112.2000°E)
Time: 11:30:56
(UTC+08:00)

Envisat - Visible Passes

Search period start: 18 June 2021 00:00
Search period end: 28 June 2021 00:00
Orbit: 764 x 766 km, 98.1° (Epoch: 17 June)

Date Brightness Start Highest point End Pass type
(mag) Time Alt. Az. Time Alt. Az. Time Alt. Az.
18 Jun 4.8 05:07:54 10° NE 05:12:24 32° E 05:16:53 10° SSE visible
19 Jun 5.9 04:33:42 10° ENE 04:35:27 12° E 04:37:12 10° ESE visible
21 Jun 5.3 04:56:52 10° NE 05:00:55 24° E 05:04:56 10° SSE visible
23 Jun 4.1 05:21:26 10° NNE 05:26:19 47° E 05:31:10 10° S visible
24 Jun 5.6 04:46:01 10° NE 04:49:24 18° E 04:52:46 10° SE visible
26 Jun 4.6 05:10:13 10° NNE 05:14:50 35° E 05:19:25 10° SSE visible
27 Jun 5.8 04:35:34 10° ENE 04:37:52 13° E 04:40:11 10° ESE visible
